Location: Passau
(48.5830°N, 13.4830°E)
Time: 11:40:48
(UTC+02:00)

Vanguard 2 Rocket - All Passes

Search period start: 03 August 2021 00:00
Search period end: 13 August 2021 00:00
Orbit: 555 x 3325 km, 32.9° (Epoch: 02 August)

Date Brightness Start Highest point End Pass type
(mag) Time Alt. Az. Time Alt. Az. Time Alt. Az.
08 Aug - 07:38:17 10° SSW 07:39:41 11° S 07:41:01 10° SSE daylight
09 Aug - 06:38:09 10° SSW 06:40:30 13° S 06:42:34 10° SSE daylight
10 Aug - 05:38:02 10° SSW 05:41:13 14° S 05:43:51 10° SE daylight
10 Aug - 07:51:31 10° SSW 07:53:15 12° S 07:54:51 10° S daylight
11 Aug - 04:37:58 10° SSW 04:41:47 14° S 04:44:53 10° SE visible
11 Aug - 06:50:54 10° SW 06:54:07 15° S 06:56:47 10° SSE daylight
12 Aug - 03:38:06 10° S 03:42:10 13° SSE 03:45:30 10° SE visible
12 Aug - 05:50:20 10° SW 05:54:53 17° S 05:58:21 10° SE daylight
12 Aug - 08:05:37 10° SSW 08:06:45 11° SSW 08:07:49 10° S daylight
